Wetterdaten: aktuell Mittwoch, 18.07.2018 10:15
Datum Zeit Temp. A. Feuchte A. Luftdruck Regen Wind Richtung Richtung Sonnenschein Solar Taupunkt Windben
18.07.2018 10:15 20,7 C 76 % 1015,3 hPa 0,0 l/m 3,2 km/h (1 Bft) W-NW 292 0 min 328 W/m 16,3 C 12,9 km/h (3 Bft)
18.07.2018 10:10 20,4 C 77 % 1015,3 hPa 0,0 l/m 2,3 km/h (1 Bft) SW 223 0 min 310 W/m 16,2 C 6,4 km/h (2 Bft)
18.07.2018 10:05 20,2 C 77 % 1015,3 hPa 0,0 l/m 4,7 km/h (1 Bft) W 263 5 min 662 W/m 16,0 C 12,9 km/h (3 Bft)
18.07.2018 10:00 19,8 C 79 % 1015,3 hPa 0,0 l/m 4,0 km/h (1 Bft) SW 217 5 min 524 W/m 16,0 C 11,3 km/h (2 Bft)
18.07.2018 09:55 19,8 C 79 % 1015,3 hPa 0,0 l/m 3,5 km/h (1 Bft) SW 217 0 min 134 W/m 16,0 C 8,0 km/h (2 Bft)
18.07.2018 09:50 20,1 C 77 % 1015,2 hPa 0,0 l/m 2,1 km/h (1 Bft) W-SW 256 0 min 101 W/m 15,9 C 4,8 km/h (1 Bft)
18.07.2018 09:45 20,3 C 76 % 1015,3 hPa 0,0 l/m 3,4 km/h (1 Bft) W 262 0 min 126 W/m 15,9 C 9,7 km/h (2 Bft)
18.07.2018 09:40 20,5 C 76 % 1015,3 hPa 0,0 l/m 4,3 km/h (1 Bft) SW 217 0 min 313 W/m 16,1 C 12,9 km/h (3 Bft)
18.07.2018 09:35 20,4 C 79 % 1015,2 hPa 0,0 l/m 2,9 km/h (1 Bft) S 181 5 min 595 W/m 16,6 C 8,0 km/h (2 Bft)
18.07.2018 09:30 19,7 C 82 % 1015,3 hPa 0,0 l/m 2,7 km/h (1 Bft) NO 46 5 min 553 W/m 16,5 C 11,3 km/h (2 Bft)
18.07.2018 09:25 19,3 C 82 % 1015,2 hPa 0,0 l/m 2,2 km/h (1 Bft) W-NW 287 0 min 159 W/m 16,1 C 9,7 km/h (2 Bft)
18.07.2018 09:20 19,2 C 84 % 1015,2 hPa 0,0 l/m 2,3 km/h (1 Bft) W-SW 256 0 min 255 W/m 16,4 C 9,7 km/h (2 Bft)
18.07.2018 09:15 18,8 C 84 % 1015,2 hPa 0,0 l/m 3,3 km/h (1 Bft) N-NW 334 0 min 204 W/m 16,0 C 9,7 km/h (2 Bft)
18.07.2018 09:10 18,7 C 85 % 1015,2 hPa 0,0 l/m 2,0 km/h (1 Bft) W 263 0 min 188 W/m 16,1 C 9,7 km/h (2 Bft)
18.07.2018 09:05 18,7 C 85 % 1015,2 hPa 0,0 l/m 2,8 km/h (1 Bft) W-SW 254 0 min 181 W/m 16,1 C 6,4 km/h (2 Bft)
18.07.2018 09:00 18,7 C 84 % 1015,1 hPa 0,0 l/m 3,4 km/h (1 Bft) W 272 0 min 190 W/m 15,9 C 8,0 km/h (2 Bft)
18.07.2018 08:55 18,7 C 84 % 1015,1 hPa 0,0 l/m 3,8 km/h (1 Bft) SW 233 0 min 233 W/m 15,9 C 9,7 km/h (2 Bft)
18.07.2018 08:50 18,8 C 84 % 1015,1 hPa 0,0 l/m 3,3 km/h (1 Bft) SW 234 0 min 203 W/m 16,0 C 8,0 km/h (2 Bft)
18.07.2018 08:45 18,8 C 85 % 1015,1 hPa 0,0 l/m 2,8 km/h (1 Bft) W-SW 240 5 min 335 W/m 16,2 C 8,0 km/h (2 Bft)
18.07.2018 08:40 18,4 C 88 % 1015,0 hPa 0,0 l/m 2,9 km/h (1 Bft) S-SO 157 5 min 380 W/m 16,4 C 8,0 km/h (2 Bft)
18.07.2018 08:35 18,1 C 87 % 1015,0 hPa 0,0 l/m 3,2 km/h (1 Bft) S-SW 209 5 min 332 W/m 15,9 C 8,0 km/h (2 Bft)
18.07.2018 08:30 18,0 C 88 % 1015,0 hPa 0,0 l/m 3,3 km/h (1 Bft) W-SW 254 0 min 193 W/m 16,0 C 11,3 km/h (2 Bft)
18.07.2018 08:25 17,7 C 90 % 1015,1 hPa 0,0 l/m 3,0 km/h (1 Bft) W-SW 239 5 min 360 W/m 16,0 C 8,0 km/h (2 Bft)
18.07.2018 08:20 17,2 C 91 % 1014,9 hPa 0,0 l/m 3,3 km/h (1 Bft) SW 236 5 min 279 W/m 15,7 C 8,0 km/h (2 Bft)
18.07.2018 08:15 16,9 C 91 % 1014,9 hPa 0,0 l/m 3,0 km/h (1 Bft) SW 215 5 min 254 W/m 15,4 C 9,7 km/h (2 Bft)
18.07.2018 08:10 16,8 C 92 % 1014,9 hPa 0,0 l/m 2,8 km/h (1 Bft) W-SW 257 0 min 156 W/m 15,5 C 8,0 km/h (2 Bft)
18.07.2018 08:05 16,7 C 92 % 1014,9 hPa 0,0 l/m 3,8 km/h (1 Bft) W 281 0 min 85 W/m 15,4 C 12,9 km/h (3 Bft)
18.07.2018 08:00 16,7 C 93 % 1014,9 hPa 0,0 l/m 2,3 km/h (1 Bft) W 271 5 min 217 W/m 15,6 C 4,8 km/h (1 Bft)
18.07.2018 07:55 16,5 C 93 % 1014,9 hPa 0,0 l/m 3,2 km/h (1 Bft) W-SW 252 5 min 252 W/m 15,4 C 9,7 km/h (2 Bft)
18.07.2018 07:50 16,3 C 93 % 1014,9 hPa 0,0 l/m 3,3 km/h (1 Bft) SW 225 5 min 231 W/m 15,2 C 6,4 km/h (2 Bft)
18.07.2018 07:45 16,0 C 93 % 1015,0 hPa 0,0 l/m 2,4 km/h (1 Bft) W-SW 254 5 min 209 W/m 14,9 C 8,0 km/h (2 Bft)
18.07.2018 07:40 15,9 C 93 % 1015,0 hPa 0,0 l/m 2,5 km/h (1 Bft) W-SW 255 5 min 186 W/m 14,8 C 8,0 km/h (2 Bft)
18.07.2018 07:35 15,7 C 93 % 1015,0 hPa 0,0 l/m 1,7 km/h (1 Bft) SW 233 0 min 120 W/m 14,6 C 4,8 km/h (1 Bft)
18.07.2018 07:30 15,6 C 93 % 1015,0 hPa 0,0 l/m 1,9 km/h (1 Bft) W 280 0 min 101 W/m 14,5 C 4,8 km/h (1 Bft)
18.07.2018 07:25 15,4 C 93 % 1015,0 hPa 0,0 l/m 1,8 km/h (1 Bft) SW 225 0 min 68 W/m 14,3 C 6,4 km/h (2 Bft)
18.07.2018 07:20 15,3 C 93 % 1015,0 hPa 0,0 l/m 0,0 km/h (0 Bft) W-SW 254 0 min 49 W/m 14,2 C 0,0 km/h (0 Bft)
18.07.2018 07:15 15,3 C 93 % 1015,0 hPa 0,0 l/m 0,3 km/h (0 Bft) W-SW 254 0 min 56 W/m 14,2 C 1,6 km/h (1 Bft)
18.07.2018 07:10 15,2 C 93 % 1014,9 hPa 0,0 l/m 1,1 km/h (1 Bft) W-SW 254 0 min 62 W/m 14,1 C 3,2 km/h (1 Bft)
18.07.2018 07:05 15,2 C 93 % 1014,9 hPa 0,0 l/m 1,0 km/h (0 Bft) W-SW 254 0 min 51 W/m 14,1 C 4,8 km/h (1 Bft)
18.07.2018 07:00 15,1 C 92 % 1014,9 hPa 0,0 l/m 0,2 km/h (0 Bft) S-SW 192 0 min 41 W/m 13,8 C 3,2 km/h (1 Bft)
18.07.2018 06:55 15,1 C 92 % 1014,9 hPa 0,0 l/m 0,1 km/h (0 Bft) S-SW 192 0 min 37 W/m 13,8 C 1,6 km/h (1 Bft)
18.07.2018 06:50 15,1 C 92 % 1014,9 hPa 0,0 l/m 0,8 km/h (0 Bft) S-SW 192 0 min 33 W/m 13,8 C 3,2 km/h (1 Bft)
18.07.2018 06:45 15,1 C 92 % 1014,8 hPa 0,0 l/m 0,8 km/h (0 Bft) W-NW 292 0 min 29 W/m 13,8 C 4,8 km/h (1 Bft)
18.07.2018 06:40 15,1 C 92 % 1014,8 hPa 0,0 l/m 1,9 km/h (1 Bft) W 261 0 min 28 W/m 13,8 C 4,8 km/h (1 Bft)
18.07.2018 06:35 15,1 C 92 % 1014,8 hPa 0,0 l/m 2,0 km/h (1 Bft) W 272 0 min 26 W/m 13,8 C 4,8 km/h (1 Bft)
18.07.2018 06:30 15,1 C 92 % 1014,7 hPa 0,0 l/m 0,4 km/h (0 Bft) W-SW 255 0 min 23 W/m 13,8 C 3,2 km/h (1 Bft)
18.07.2018 06:25 15,1 C 92 % 1014,7 hPa 0,0 l/m 0,0 km/h (0 Bft) W-SW 255 0 min 23 W/m 13,8 C 1,6 km/h (1 Bft)
18.07.2018 06:20 15,2 C 91 % 1014,6 hPa 0,0 l/m 0,8 km/h (0 Bft) W-SW 255 0 min 20 W/m 13,7 C 3,2 km/h (1 Bft)
18.07.2018 06:15 15,2 C 91 % 1014,5 hPa 0,0 l/m 1,4 km/h (1 Bft) W-NW 283 0 min 18 W/m 13,7 C 4,8 km/h (1 Bft)
18.07.2018 06:10 15,2 C 91 % 1014,5 hPa 0,0 l/m 0,2 km/h (0 Bft) W 276 0 min 15 W/m 13,7 C 3,2 km/h (1 Bft)
18.07.2018 06:05 15,2 C 91 % 1014,5 hPa 0,0 l/m 1,3 km/h (1 Bft) W 263 0 min 13 W/m 13,7 C 6,4 km/h (2 Bft)
18.07.2018 06:00 15,2 C 91 % 1014,5 hPa 0,0 l/m 0,4 km/h (0 Bft) SW 216 0 min 11 W/m 13,7 C 3,2 km/h (1 Bft)
18.07.2018 05:55 15,2 C 90 % 1014,4 hPa 0,0 l/m 0,1 km/h (0 Bft) O-SO 122 0 min 10 W/m 13,6 C 1,6 km/h (1 Bft)
18.07.2018 05:40 15,4 C 90 % 1014,4 hPa 0,0 l/m 0,0 km/h (0 Bft) SW 225 0 min 6 W/m 13,8 C 1,6 km/h (1 Bft)
18.07.2018 05:35 15,5 C 90 % 1014,3 hPa 0,0 l/m 1,6 km/h (1 Bft) SW 225 0 min 5 W/m 13,9 C 3,2 km/h (1 Bft)
18.07.2018 05:30 15,6 C 89 % 1014,3 hPa 0,0 l/m 0,0 km/h (0 Bft) W 270 0 min 4 W/m 13,8 C 1,6 km/h (1 Bft)
18.07.2018 05:25 15,7 C 89 % 1014,4 hPa 0,0 l/m 1,6 km/h (1 Bft) W 270 0 min 0 W/m 13,9 C 4,8 km/h (1 Bft)
18.07.2018 05:20 15,7 C 89 % 1014,3 hPa 0,0 l/m 1,6 km/h (1 Bft) S-SW 202 0 min 0 W/m 13,9 C 6,4 km/h (2 Bft)
18.07.2018 05:15 15,8 C 89 % 1014,3 hPa 0,0 l/m 1,6 km/h (1 Bft) S 180 0 min 0 W/m 14,0 C 4,8 km/h (1 Bft)
18.07.2018 05:10 15,9 C 88 % 1014,4 hPa 0,0 l/m 1,6 km/h (1 Bft) W 270 0 min 0 W/m 13,9 C 4,8 km/h (1 Bft)
18.07.2018 05:05 15,9 C 88 % 1014,3 hPa 0,0 l/m 1,6 km/h (1 Bft) W-SW 247 0 min 0 W/m 13,9 C 3,2 km/h (1 Bft)
18.07.2018 05:00 16,1 C 88 % 1014,3 hPa 0,0 l/m 1,6 km/h (1 Bft) W 270 0 min 0 W/m 14,1 C 6,4 km/h (2 Bft)
18.07.2018 04:55 16,1 C 87 % 1014,3 hPa 0,0 l/m 0,0 km/h (0 Bft) W-SW 247 0 min 0 W/m 13,9 C 4,8 km/h (1 Bft)
18.07.2018 04:50 16,2 C 87 % 1014,3 hPa 0,0 l/m 1,6 km/h (1 Bft) W-SW 247 0 min 0 W/m 14,0 C 6,4 km/h (2 Bft)
18.07.2018 04:45 16,3 C 87 % 1014,2 hPa 0,0 l/m 3,2 km/h (1 Bft) W 270 0 min 0 W/m 14,1 C 11,3 km/h (2 Bft)
18.07.2018 04:40 16,4 C 86 % 1014,2 hPa 0,0 l/m 1,6 km/h (1 Bft) W 270 0 min 0 W/m 14,1 C 6,4 km/h (2 Bft)
18.07.2018 04:35 16,5 C 86 % 1014,2 hPa 0,0 l/m 1,6 km/h (1 Bft) W-NW 292 0 min 0 W/m 14,1 C 6,4 km/h (2 Bft)
18.07.2018 04:30 16,6 C 85 % 1014,3 hPa 0,0 l/m 3,2 km/h (1 Bft) W-NW 292 0 min 0 W/m 14,1 C 9,7 km/h (2 Bft)
18.07.2018 04:25 16,7 C 85 % 1014,2 hPa 0,0 l/m 1,6 km/h (1 Bft) W-SW 247 0 min 0 W/m 14,2 C 4,8 km/h (1 Bft)
18.07.2018 04:20 16,8 C 84 % 1014,2 hPa 0,0 l/m 1,6 km/h (1 Bft) W-SW 247 0 min 0 W/m 14,1 C 4,8 km/h (1 Bft)
18.07.2018 04:15 16,9 C 84 % 1014,2 hPa 0,0 l/m 3,2 km/h (1 Bft) W 270 0 min 0 W/m 14,2 C 6,4 km/h (2 Bft)
18.07.2018 04:10 17,0 C 83 % 1014,1 hPa 0,0 l/m 3,2 km/h (1 Bft) W 270 0 min 0 W/m 14,1 C 11,3 km/h (2 Bft)
18.07.2018 04:05 17,1 C 83 % 1014,1 hPa 0,0 l/m 3,2 km/h (1 Bft) W-SW 247 0 min 0 W/m 14,2 C 8,0 km/h (2 Bft)
18.07.2018 04:00 17,2 C 83 % 1014,1 hPa 0,0 l/m 4,8 km/h (1 Bft) W-NW 292 0 min 0 W/m 14,3 C 11,3 km/h (2 Bft)
18.07.2018 03:55 17,3 C 83 % 1014,1 hPa 0,0 l/m 4,8 km/h (1 Bft) S-SW 202 0 min 0 W/m 14,4 C 16,1 km/h (3 Bft)
18.07.2018 03:50 17,4 C 83 % 1014,1 hPa 0,0 l/m 4,8 km/h (1 Bft) SW 225 0 min 0 W/m 14,5 C 16,1 km/h (3 Bft)
18.07.2018 03:45 17,6 C 83 % 1014,2 hPa 0,0 l/m 3,2 km/h (1 Bft) W-NW 292 0 min 0 W/m 14,7 C 12,9 km/h (3 Bft)
18.07.2018 03:40 17,7 C 83 % 1014,0 hPa 0,0 l/m 3,2 km/h (1 Bft) SW 225 0 min 0 W/m 14,8 C 11,3 km/h (2 Bft)
18.07.2018 03:35 17,8 C 83 % 1014,0 hPa 0,0 l/m 1,6 km/h (1 Bft) S-SW 202 0 min 0 W/m 14,9 C 4,8 km/h (1 Bft)
18.07.2018 03:30 17,9 C 84 % 1013,9 hPa 0,0 l/m 1,6 km/h (1 Bft) S-SW 202 0 min 0 W/m 15,2 C 4,8 km/h (1 Bft)
18.07.2018 03:25 18,0 C 83 % 1013,9 hPa 0,0 l/m 1,6 km/h (1 Bft) NW 315 0 min 0 W/m 15,1 C 6,4 km/h (2 Bft)
18.07.2018 03:20 18,1 C 83 % 1013,9 hPa 0,0 l/m 1,6 km/h (1 Bft) W-NW 292 0 min 0 W/m 15,2 C 8,0 km/h (2 Bft)
18.07.2018 03:15 18,1 C 83 % 1013,9 hPa 0,0 l/m 1,6 km/h (1 Bft) W-SW 247 0 min 0 W/m 15,2 C 6,4 km/h (2 Bft)
18.07.2018 03:10 18,2 C 82 % 1013,9 hPa 0,0 l/m 1,6 km/h (1 Bft) S-SW 202 0 min 0 W/m 15,1 C 4,8 km/h (1 Bft)
18.07.2018 03:05 18,2 C 82 % 1013,9 hPa 0,0 l/m 3,2 km/h (1 Bft) W-SW 247 0 min 0 W/m 15,1 C 6,4 km/h (2 Bft)
18.07.2018 03:00 18,2 C 82 % 1013,9 hPa 0,0 l/m 3,2 km/h (1 Bft) W-SW 247 0 min 0 W/m 15,1 C 8,0 km/h (2 Bft)
18.07.2018 02:55 18,3 C 82 % 1013,9 hPa 0,0 l/m 3,2 km/h (1 Bft) N-NO 22 0 min 0 W/m 15,2 C 6,4 km/h (2 Bft)
18.07.2018 02:50 18,3 C 82 % 1014,0 hPa 0,0 l/m 3,2 km/h (1 Bft) W 270 0 min 0 W/m 15,2 C 6,4 km/h (2 Bft)
18.07.2018 02:45 18,3 C 82 % 1013,9 hPa 0,0 l/m 3,2 km/h (1 Bft) W 270 0 min 0 W/m 15,2 C 8,0 km/h (2 Bft)
18.07.2018 02:40 18,4 C 82 % 1013,9 hPa 0,0 l/m 1,6 km/h (1 Bft) W 270 0 min 0 W/m 15,3 C 8,0 km/h (2 Bft)
18.07.2018 02:35 18,4 C 82 % 1014,0 hPa 0,0 l/m 1,6 km/h (1 Bft) W 270 0 min 0 W/m 15,3 C 8,0 km/h (2 Bft)
18.07.2018 02:30 18,5 C 82 % 1014,0 hPa 0,0 l/m 1,6 km/h (1 Bft) W-SW 247 0 min 0 W/m 15,4 C 4,8 km/h (1 Bft)
18.07.2018 02:25 18,6 C 82 % 1013,9 hPa 0,0 l/m 1,6 km/h (1 Bft) W-SW 247 0 min 0 W/m 15,5 C 6,4 km/h (2 Bft)
18.07.2018 02:20 18,7 C 81 % 1014,0 hPa 0,0 l/m 3,2 km/h (1 Bft) W-SW 247 0 min 0 W/m 15,4 C 11,3 km/h (2 Bft)
18.07.2018 02:15 18,7 C 81 % 1013,9 hPa 0,0 l/m 1,6 km/h (1 Bft) W-SW 247 0 min 0 W/m 15,4 C 4,8 km/h (1 Bft)
18.07.2018 02:10 18,8 C 81 % 1014,0 hPa 0,0 l/m 3,2 km/h (1 Bft) SW 225 0 min 0 W/m 15,5 C 6,4 km/h (2 Bft)
18.07.2018 02:05 18,9 C 81 % 1013,9 hPa 0,0 l/m 1,6 km/h (1 Bft) W 270 0 min 0 W/m 15,6 C 4,8 km/h (1 Bft)
18.07.2018 02:00 18,9 C 80 % 1013,9 hPa 0,0 l/m 3,2 km/h (1 Bft) W 270 0 min 0 W/m 15,4 C 6,4 km/h (2 Bft)
18.07.2018 01:55 18,9 C 80 % 1014,0 hPa 0,0 l/m 3,2 km/h (1 Bft) W-NW 292 0 min 0 W/m 15,4 C 8,0 km/h (2 Bft)
18.07.2018 01:50 19,0 C 80 % 1014,0 hPa 0,0 l/m 3,0 km/h (1 Bft) W 274 0 min 0 W/m 15,5 C 6,4 km/h (2 Bft)
18.07.2018 01:45 19,0 C 80 % 1013,8 hPa 0,0 l/m 2,5 km/h (1 Bft) SW 229 0 min 0 W/m 15,5 C 9,7 km/h (2 Bft)
18.07.2018 01:40 19,1 C 79 % 1013,8 hPa 0,0 l/m 2,8 km/h (1 Bft) N-NW 338 0 min 0 W/m 15,4 C 8,0 km/h (2 Bft)
18.07.2018 01:35 19,1 C 79 % 1013,7 hPa 0,0 l/m 1,8 km/h (1 Bft) W-SW 248 0 min 0 W/m 15,4 C 6,4 km/h (2 Bft)
18.07.2018 01:30 19,2 C 78 % 1013,6 hPa 0,0 l/m 1,8 km/h (1 Bft) N-NW 340 0 min 0 W/m 15,3 C 3,2 km/h (1 Bft)
18.07.2018 01:25 19,2 C 78 % 1013,6 hPa 0,0 l/m 1,4 km/h (1 Bft) O-SO 102 0 min 0 W/m 15,3 C 3,2 km/h (1 Bft)
18.07.2018 01:20 19,2 C 78 % 1013,7 hPa 0,0 l/m 1,7 km/h (1 Bft) W 261 0 min 0 W/m 15,3 C 6,4 km/h (2 Bft)
18.07.2018 01:15 19,3 C 77 % 1013,7 hPa 0,0 l/m 2,7 km/h (1 Bft) N 349 0 min 0 W/m 15,2 C 6,4 km/h (2 Bft)
18.07.2018 01:10 19,3 C 77 % 1013,8 hPa 0,0 l/m 2,5 km/h (1 Bft) S-SW 209 0 min 0 W/m 15,2 C 9,7 km/h (2 Bft)
18.07.2018 01:05 19,3 C 76 % 1013,9 hPa 0,0 l/m 2,5 km/h (1 Bft) S 178 0 min 0 W/m 15,0 C 8,0 km/h (2 Bft)
18.07.2018 01:00 19,4 C 76 % 1013,8 hPa 0,0 l/m 1,9 km/h (1 Bft) W-SW 246 0 min 0 W/m 15,1 C 4,8 km/h (1 Bft)
18.07.2018 00:55 19,4 C 76 % 1013,8 hPa 0,0 l/m 2,4 km/h (1 Bft) NW 315 0 min 0 W/m 15,1 C 9,7 km/h (2 Bft)
18.07.2018 00:50 19,4 C 75 % 1013,9 hPa 0,0 l/m 1,9 km/h (1 Bft) W 274 0 min 0 W/m 14,8 C 8,0 km/h (2 Bft)
18.07.2018 00:45 19,4 C 76 % 1013,8 hPa 0,0 l/m 2,0 km/h (1 Bft) W-SW 250 0 min 0 W/m 15,1 C 3,2 km/h (1 Bft)
18.07.2018 00:40 19,5 C 75 % 1013,8 hPa 0,0 l/m 3,4 km/h (1 Bft) W-NW 296 0 min 0 W/m 14,9 C 9,7 km/h (2 Bft)
18.07.2018 00:35 19,6 C 75 % 1013,8 hPa 0,0 l/m 1,7 km/h (1 Bft) SW 221 0 min 0 W/m 15,0 C 3,2 km/h (1 Bft)
18.07.2018 00:30 19,6 C 75 % 1013,8 hPa 0,0 l/m 1,8 km/h (1 Bft) SW 235 0 min 0 W/m 15,0 C 4,8 km/h (1 Bft)
18.07.2018 00:25 19,6 C 75 % 1013,9 hPa 0,0 l/m 2,9 km/h (1 Bft) W-SW 252 0 min 0 W/m 15,0 C 14,5 km/h (3 Bft)
18.07.2018 00:20 19,6 C 75 % 1013,9 hPa 0,0 l/m 1,7 km/h (1 Bft) SW 236 0 min 0 W/m 15,0 C 6,4 km/h (2 Bft)
18.07.2018 00:15 19,6 C 75 % 1013,9 hPa 0,0 l/m 2,7 km/h (1 Bft) S-SW 200 0 min 0 W/m 15,0 C 8,0 km/h (2 Bft)
18.07.2018 00:10 19,6 C 75 % 1013,7 hPa 0,0 l/m 3,6 km/h (1 Bft) W 270 0 min 0 W/m 15,0 C 12,9 km/h (3 Bft)
18.07.2018 00:05 19,6 C 75 % 1013,8 hPa 0,0 l/m 4,0 km/h (1 Bft) W-SW 240 0 min 0 W/m 15,0 C 9,7 km/h (2 Bft)
18.07.2018 00:00 19,6 C 75 % 1013,6 hPa 0,0 l/m 2,9 km/h (1 Bft) W 270 0 min 0 W/m 15,0 C 6,4 km/h (2 Bft)
17.07.2018 23:55 19,6 C 75 % 1013,7 hPa 0,0 l/m 2,4 km/h (1 Bft) W-NW 289 0 min 0 W/m 15,0 C 8,0 km/h (2 Bft)
17.07.2018 23:50 19,6 C 75 % 1013,7 hPa 0,0 l/m 1,4 km/h (1 Bft) W 265 0 min 0 W/m 15,0 C 4,8 km/h (1 Bft)
17.07.2018 23:45 19,6 C 75 % 1013,6 hPa 0,0 l/m 2,5 km/h (1 Bft) W 266 0 min 0 W/m 15,0 C 9,7 km/h (2 Bft)
17.07.2018 23:40 19,7 C 75 % 1013,5 hPa 0,0 l/m 1,9 km/h (1 Bft) W 263 0 min 0 W/m 15,1 C 8,0 km/h (2 Bft)
17.07.2018 23:35 19,7 C 75 % 1013,5 hPa 0,0 l/m 2,6 km/h (1 Bft) N-NW 338 0 min 0 W/m 15,1 C 6,4 km/h (2 Bft)
17.07.2018 23:30 19,7 C 74 % 1013,4 hPa 0,0 l/m 4,5 km/h (1 Bft) NW 312 0 min 0 W/m 14,9 C 12,9 km/h (3 Bft)
17.07.2018 23:25 19,8 C 74 % 1013,4 hPa 0,0 l/m 1,6 km/h (1 Bft) SW 218 0 min 0 W/m 15,0 C 4,8 km/h (1 Bft)
17.07.2018 23:20 19,9 C 74 % 1013,3 hPa 0,0 l/m 0,9 km/h (0 Bft) SW 235 0 min 0 W/m 15,1 C 3,2 km/h (1 Bft)
17.07.2018 23:15 19,9 C 73 % 1013,3 hPa 0,0 l/m 2,0 km/h (1 Bft) SW 235 0 min 0 W/m 14,9 C 6,4 km/h (2 Bft)
17.07.2018 23:10 20,1 C 73 % 1013,2 hPa 0,0 l/m 2,9 km/h (1 Bft) S-SO 148 0 min 0 W/m 15,1 C 8,0 km/h (2 Bft)
17.07.2018 23:05 20,2 C 72 % 1013,2 hPa 0,0 l/m 3,4 km/h (1 Bft) O-NO 64 0 min 0 W/m 15,0 C 9,7 km/h (2 Bft)
17.07.2018 23:00 20,3 C 72 % 1013,2 hPa 0,0 l/m 4,1 km/h (1 Bft) W 259 0 min 0 W/m 15,1 C 14,5 km/h (3 Bft)
17.07.2018 22:55 20,4 C 72 % 1013,1 hPa 0,0 l/m 2,8 km/h (1 Bft) O-SO 122 0 min 0 W/m 15,2 C 6,4 km/h (2 Bft)
17.07.2018 22:50 20,6 C 71 % 1013,1 hPa 0,0 l/m 3,6 km/h (1 Bft) NW 324 0 min 0 W/m 15,2 C 16,1 km/h (3 Bft)
17.07.2018 22:45 20,7 C 71 % 1013,2 hPa 0,0 l/m 3,3 km/h (1 Bft) S 191 0 min 0 W/m 15,2 C 8,0 km/h (2 Bft)
17.07.2018 22:40 20,8 C 71 % 1013,2 hPa 0,0 l/m 3,2 km/h (1 Bft) W 270 0 min 0 W/m 15,3 C 16,1 km/h (3 Bft)
17.07.2018 22:35 21,0 C 71 % 1013,1 hPa 0,0 l/m 1,6 km/h (1 Bft) N-NW 337 0 min 0 W/m 15,5 C 6,4 km/h (2 Bft)
17.07.2018 22:30 21,2 C 70 % 1013,1 hPa 0,0 l/m 4,8 km/h (1 Bft) W 270 0 min 0 W/m 15,5 C 24,1 km/h (4 Bft)
17.07.2018 22:25 21,3 C 71 % 1013,1 hPa 0,0 l/m 3,2 km/h (1 Bft) W 270 0 min 0 W/m 15,8 C 11,3 km/h (2 Bft)
17.07.2018 22:20 21,5 C 70 % 1012,9 hPa 0,0 l/m 4,8 km/h (1 Bft) SW 225 0 min 0 W/m 15,8 C 11,3 km/h (2 Bft)
17.07.2018 22:15 21,6 C 69 % 1012,8 hPa 0,0 l/m 4,8 km/h (1 Bft) W 270 0 min 0 W/m 15,7 C 12,9 km/h (3 Bft)
17.07.2018 22:10 21,8 C 69 % 1012,7 hPa 0,0 l/m 4,8 km/h (1 Bft) W-NW 292 0 min 0 W/m 15,9 C 12,9 km/h (3 Bft)
17.07.2018 22:05 22,0 C 67 % 1012,7 hPa 0,0 l/m 3,2 km/h (1 Bft) W-SW 247 0 min 0 W/m 15,6 C 6,4 km/h (2 Bft)
17.07.2018 22:00 22,1 C 66 % 1012,6 hPa 0,0 l/m 4,8 km/h (1 Bft) W 270 0 min 0 W/m 15,4 C 11,3 km/h (2 Bft)
17.07.2018 21:55 22,2 C 65 % 1012,4 hPa 0,0 l/m 3,2 km/h (1 Bft) W-SW 247 0 min 0 W/m 15,3 C 12,9 km/h (3 Bft)
17.07.2018 21:50 22,3 C 63 % 1012,3 hPa 0,0 l/m 3,2 km/h (1 Bft) W-SW 247 0 min 0 W/m 14,9 C 14,5 km/h (3 Bft)
17.07.2018 21:45 22,3 C 60 % 1012,3 hPa 0,0 l/m 3,2 km/h (1 Bft) W-SW 247 0 min 0 W/m 14,2 C 12,9 km/h (3 Bft)
17.07.2018 21:40 22,3 C 56 % 1012,2 hPa 0,0 l/m 4,8 km/h (1 Bft) W-SW 247 0 min 0 W/m 13,1 C 16,1 km/h (3 Bft)
17.07.2018 21:35 22,3 C 50 % 1012,1 hPa 0,0 l/m 3,2 km/h (1 Bft) W-SW 247 0 min 5 W/m 11,4 C 11,3 km/h (2 Bft)
17.07.2018 21:30 22,7 C 54 % 1011,9 hPa 0,0 l/m 0,5 km/h (0 Bft) W-SW 243 0 min 6 W/m 12,9 C 1,6 km/h (1 Bft)
17.07.2018 21:25 23,1 C 51 % 1011,8 hPa 0,0 l/m 0,1 km/h (0 Bft) W-SW 243 0 min 7 W/m 12,4 C 1,6 km/h (1 Bft)
17.07.2018 21:20 23,3 C 49 % 1011,8 hPa 0,0 l/m 0,0 km/h (0 Bft) W-SW 243 0 min 10 W/m 12,0 C 0,0 km/h (0 Bft)
17.07.2018 21:15 23,7 C 48 % 1011,8 hPa 0,0 l/m 0,1 km/h (0 Bft) W-SW 243 0 min 12 W/m 12,0 C 1,6 km/h (1 Bft)
17.07.2018 21:10 24,0 C 46 % 1011,7 hPa 0,0 l/m 0,7 km/h (0 Bft) W-SW 243 0 min 14 W/m 11,7 C 4,8 km/h (1 Bft)
17.07.2018 21:05 24,3 C 45 % 1011,7 hPa 0,0 l/m 0,2 km/h (0 Bft) SW 229 0 min 16 W/m 11,6 C 1,6 km/h (1 Bft)
17.07.2018 21:00 24,6 C 43 % 1011,7 hPa 0,0 l/m 0,1 km/h (0 Bft) SW 229 0 min 18 W/m 11,2 C 1,6 km/h (1 Bft)
17.07.2018 20:55 24,9 C 43 % 1011,6 hPa 0,0 l/m 0,8 km/h (0 Bft) SW 229 0 min 19 W/m 11,4 C 3,2 km/h (1 Bft)
17.07.2018 20:50 25,2 C 41 % 1011,5 hPa 0,0 l/m 1,1 km/h (1 Bft) W-SW 250 0 min 20 W/m 11,0 C 4,8 km/h (1 Bft)
17.07.2018 20:45 25,6 C 41 % 1011,5 hPa 0,0 l/m 0,6 km/h (0 Bft) W-SW 250 0 min 22 W/m 11,4 C 3,2 km/h (1 Bft)
17.07.2018 20:40 25,8 C 41 % 1011,4 hPa 0,0 l/m 0,6 km/h (0 Bft) W-SW 253 0 min 24 W/m 11,5 C 3,2 km/h (1 Bft)
17.07.2018 20:35 26,2 C 39 % 1011,4 hPa 0,0 l/m 1,4 km/h (1 Bft) W-SW 253 0 min 25 W/m 11,1 C 6,4 km/h (2 Bft)
17.07.2018 20:30 26,7 C 40 % 1011,4 hPa 0,0 l/m 1,5 km/h (1 Bft) W-SW 254 0 min 36 W/m 12,0 C 3,2 km/h (1 Bft)
17.07.2018 20:25 27,1 C 38 % 1011,3 hPa 0,0 l/m 0,9 km/h (0 Bft) W 273 0 min 49 W/m 11,5 C 4,8 km/h (1 Bft)
17.07.2018 20:20 27,6 C 39 % 1011,3 hPa 0,0 l/m 1,7 km/h (1 Bft) S 190 0 min 40 W/m 12,4 C 6,4 km/h (2 Bft)
17.07.2018 20:15 27,9 C 38 % 1011,3 hPa 0,0 l/m 1,7 km/h (1 Bft) W 273 0 min 84 W/m 12,2 C 8,0 km/h (2 Bft)
17.07.2018 20:10 28,1 C 41 % 1011,2 hPa 0,0 l/m 1,3 km/h (1 Bft) W 281 5 min 102 W/m 13,6 C 4,8 km/h (1 Bft)
17.07.2018 20:05 28,3 C 39 % 1011,2 hPa 0,0 l/m 1,3 km/h (1 Bft) W 264 5 min 113 W/m 13,0 C 8,0 km/h (2 Bft)
17.07.2018 20:00 28,6 C 38 % 1011,1 hPa 0,0 l/m 1,2 km/h (1 Bft) W 275 0 min 66 W/m 12,9 C 4,8 km/h (1 Bft)
17.07.2018 19:55 29,1 C 36 % 1011,1 hPa 0,0 l/m 2,0 km/h (1 Bft) NW 316 0 min 101 W/m 12,5 C 8,0 km/h (2 Bft)
17.07.2018 19:50 29,5 C 36 % 1011,0 hPa 0,0 l/m 1,2 km/h (1 Bft) W 280 5 min 148 W/m 12,8 C 6,4 km/h (2 Bft)
17.07.2018 19:45 29,7 C 36 % 1011,1 hPa 0,0 l/m 0,6 km/h (0 Bft) W 272 5 min 170 W/m 13,0 C 4,8 km/h (1 Bft)
17.07.2018 19:40 29,8 C 34 % 1011,0 hPa 0,0 l/m 0,4 km/h (0 Bft) W 263 5 min 179 W/m 12,2 C 3,2 km/h (1 Bft)
17.07.2018 19:35 30,1 C 31 % 1011,0 hPa 0,0 l/m 2,2 km/h (1 Bft) W 261 5 min 193 W/m 11,1 C 6,4 km/h (2 Bft)
17.07.2018 19:30 30,4 C 34 % 1011,0 hPa 0,0 l/m 1,4 km/h (1 Bft) S-SW 196 5 min 206 W/m 12,7 C 4,8 km/h (1 Bft)
17.07.2018 19:25 30,3 C 33 % 1011,0 hPa 0,0 l/m 0,0 km/h (0 Bft) NW 304 5 min 217 W/m 12,2 C 0,0 km/h (0 Bft)
17.07.2018 19:20 30,2 C 32 % 1011,0 hPa 0,0 l/m 0,8 km/h (0 Bft) W-NW 289 5 min 230 W/m 11,7 C 6,4 km/h (2 Bft)
17.07.2018 19:15 30,2 C 36 % 1011,0 hPa 0,0 l/m 1,3 km/h (1 Bft) W 270 5 min 241 W/m 13,4 C 4,8 km/h (1 Bft)
17.07.2018 19:10 30,2 C 34 % 1011,0 hPa 0,0 l/m 1,6 km/h (1 Bft) W-SW 255 5 min 249 W/m 12,6 C 8,0 km/h (2 Bft)
17.07.2018 19:05 30,1 C 34 % 1011,0 hPa 0,0 l/m 2,1 km/h (1 Bft) W-NW 289 5 min 251 W/m 12,5 C 6,4 km/h (2 Bft)
17.07.2018 19:00 30,3 C 32 % 1011,0 hPa 0,0 l/m 1,8 km/h (1 Bft) W-NW 302 5 min 251 W/m 11,7 C 9,7 km/h (2 Bft)
17.07.2018 18:55 30,3 C 35 % 1011,0 hPa 0,0 l/m 1,2 km/h (1 Bft) W 266 5 min 253 W/m 13,1 C 8,0 km/h (2 Bft)
17.07.2018 18:50 30,4 C 33 % 1010,9 hPa 0,0 l/m 2,4 km/h (1 Bft) W 274 5 min 261 W/m 12,3 C 9,7 km/h (2 Bft)
17.07.2018 18:45 30,6 C 37 % 1011,0 hPa 0,0 l/m 1,1 km/h (1 Bft) SO 135 5 min 271 W/m 14,2 C 8,0 km/h (2 Bft)
17.07.2018 18:40 30,6 C 35 % 1011,0 hPa 0,0 l/m 1,9 km/h (1 Bft) N-NW 346 5 min 273 W/m 13,4 C 9,7 km/h (2 Bft)
17.07.2018 18:35 30,7 C 34 % 1011,0 hPa 0,0 l/m 0,5 km/h (0 Bft) N-NO 13 5 min 266 W/m 13,0 C 4,8 km/h (1 Bft)
17.07.2018 18:30 30,4 C 36 % 1011,0 hPa 0,0 l/m 2,9 km/h (1 Bft) W 268 5 min 268 W/m 13,6 C 11,3 km/h (2 Bft)
17.07.2018 18:25 30,6 C 36 % 1011,1 hPa 0,0 l/m 2,1 km/h (1 Bft) W-NW 284 5 min 282 W/m 13,8 C 8,0 km/h (2 Bft)
17.07.2018 18:20 30,4 C 38 % 1011,0 hPa 0,0 l/m 1,1 km/h (1 Bft) N 5 5 min 312 W/m 14,5 C 3,2 km/h (1 Bft)
17.07.2018 18:15 30,3 C 36 % 1011,1 hPa 0,0 l/m 2,1 km/h (1 Bft) O 91 5 min 336 W/m 13,5 C 9,7 km/h (2 Bft)
17.07.2018 18:10 30,4 C 34 % 1011,1 hPa 0,0 l/m 3,0 km/h (1 Bft) W 276 5 min 342 W/m 12,7 C 6,4 km/h (2 Bft)
17.07.2018 18:05 30,4 C 36 % 1011,0 hPa 0,0 l/m 2,3 km/h (1 Bft) W-NW 294 5 min 346 W/m 13,6 C 6,4 km/h (2 Bft)
17.07.2018 18:00 30,4 C 35 % 1011,1 hPa 0,0 l/m 2,7 km/h (1 Bft) S-SW 208 5 min 356 W/m 13,2 C 11,3 km/h (2 Bft)
17.07.2018 17:55 30,3 C 36 % 1011,0 hPa 0,0 l/m 3,1 km/h (1 Bft) W 263 5 min 370 W/m 13,5 C 11,3 km/h (2 Bft)
17.07.2018 17:50 30,3 C 37 % 1011,0 hPa 0,0 l/m 3,1 km/h (1 Bft) W 270 5 min 387 W/m 14,0 C 14,5 km/h (3 Bft)
17.07.2018 17:45 30,3 C 34 % 1011,0 hPa 0,0 l/m 4,7 km/h (1 Bft) SW 231 5 min 417 W/m 12,7 C 16,1 km/h (3 Bft)
17.07.2018 17:40 30,6 C 34 % 1011,0 hPa 0,0 l/m 2,4 km/h (1 Bft) W-SW 238 5 min 449 W/m 12,9 C 11,3 km/h (2 Bft)
17.07.2018 17:35 30,4 C 35 % 1011,0 hPa 0,0 l/m 1,8 km/h (1 Bft) NW 315 5 min 479 W/m 13,2 C 6,4 km/h (2 Bft)
17.07.2018 17:30 30,5 C 35 % 1010,9 hPa 0,0 l/m 3,5 km/h (1 Bft) W-SW 257 5 min 502 W/m 13,3 C 6,4 km/h (2 Bft)
17.07.2018 17:25 30,4 C 36 % 1011,0 hPa 0,0 l/m 4,4 km/h (1 Bft) W-NW 299 5 min 526 W/m 13,6 C 12,9 km/h (3 Bft)
17.07.2018 17:20 30,4 C 38 % 1011,0 hPa 0,0 l/m 3,2 km/h (1 Bft) S-SW 202 5 min 538 W/m 14,5 C 8,0 km/h (2 Bft)
17.07.2018 17:15 30,9 C 34 % 1011,1 hPa 0,0 l/m 2,5 km/h (1 Bft) W-NW 298 5 min 556 W/m 13,2 C 6,4 km/h (2 Bft)
17.07.2018 17:10 30,6 C 37 % 1011,0 hPa 0,0 l/m 3,3 km/h (1 Bft) SW 217 5 min 565 W/m 14,2 C 12,9 km/h (3 Bft)
17.07.2018 17:05 30,4 C 37 % 1011,0 hPa 0,0 l/m 3,4 km/h (1 Bft) W 263 5 min 574 W/m 14,0 C 9,7 km/h (2 Bft)
17.07.2018 17:00 30,4 C 38 % 1011,0 hPa 0,0 l/m 3,6 km/h (1 Bft) SW 219 5 min 577 W/m 14,5 C 12,9 km/h (3 Bft)
17.07.2018 16:55 30,6 C 40 % 1011,0 hPa 0,0 l/m 2,1 km/h (1 Bft) W 260 5 min 592 W/m 15,4 C 9,7 km/h (2 Bft)
17.07.2018 16:50 30,4 C 40 % 1011,1 hPa 0,0 l/m 1,6 km/h (1 Bft) SW 229 5 min 589 W/m 15,3 C 6,4 km/h (2 Bft)
17.07.2018 16:45 30,4 C 38 % 1011,1 hPa 0,0 l/m 2,7 km/h (1 Bft) W 279 5 min 606 W/m 14,5 C 11,3 km/h (2 Bft)
17.07.2018 16:40 30,6 C 37 % 1011,1 hPa 0,0 l/m 2,4 km/h (1 Bft) W 277 5 min 632 W/m 14,2 C 12,9 km/h (3 Bft)
17.07.2018 16:35 30,4 C 39 % 1011,2 hPa 0,0 l/m 1,4 km/h (1 Bft) NW 304 5 min 586 W/m 14,9 C 4,8 km/h (1 Bft)
17.07.2018 16:30 30,4 C 37 % 1011,2 hPa 0,0 l/m 1,7 km/h (1 Bft) W-SW 242 0 min 162 W/m 14,0 C 4,8 km/h (1 Bft)
17.07.2018 16:25 30,9 C 41 % 1011,3 hPa 0,0 l/m 1,1 km/h (1 Bft) W 277 5 min 635 W/m 16,1 C 6,4 km/h (2 Bft)
17.07.2018 16:20 30,7 C 40 % 1011,2 hPa 0,0 l/m 2,2 km/h (1 Bft) W-NW 284 5 min 644 W/m 15,5 C 6,4 km/h (2 Bft)
17.07.2018 16:15 30,7 C 39 % 1011,2 hPa 0,0 l/m 2,3 km/h (1 Bft) SW 232 5 min 686 W/m 15,1 C 8,0 km/h (2 Bft)
17.07.2018 16:10 30,7 C 37 % 1011,2 hPa 0,0 l/m 3,0 km/h (1 Bft) NW 315 5 min 711 W/m 14,3 C 6,4 km/h (2 Bft)
17.07.2018 16:05 31,1 C 38 % 1011,2 hPa 0,0 l/m 2,3 km/h (1 Bft) W 270 5 min 718 W/m 15,1 C 6,4 km/h (2 Bft)
17.07.2018 16:00 30,6 C 39 % 1011,2 hPa 0,0 l/m 2,5 km/h (1 Bft) S 189 5 min 726 W/m 15,0 C 8,0 km/h (2 Bft)
17.07.2018 15:55 30,7 C 36 % 1011,2 hPa 0,0 l/m 2,8 km/h (1 Bft) W-SW 245 5 min 729 W/m 13,9 C 6,4 km/h (2 Bft)
17.07.2018 15:50 30,9 C 39 % 1011,3 hPa 0,0 l/m 3,8 km/h (1 Bft) W 272 5 min 752 W/m 15,3 C 12,9 km/h (3 Bft)
17.07.2018 15:45 30,9 C 38 % 1011,2 hPa 0,0 l/m 1,6 km/h (1 Bft) W 277 5 min 771 W/m 14,9 C 4,8 km/h (1 Bft)
17.07.2018 15:40 30,5 C 37 % 1011,3 hPa 0,0 l/m 1,5 km/h (1 Bft) W-NW 282 5 min 776 W/m 14,1 C 6,4 km/h (2 Bft)
17.07.2018 15:35 30,1 C 39 % 1011,4 hPa 0,0 l/m 3,6 km/h (1 Bft) SW 215 5 min 766 W/m 14,6 C 9,7 km/h (2 Bft)
17.07.2018 15:30 30,2 C 38 % 1011,4 hPa 0,0 l/m 2,3 km/h (1 Bft) S-SW 192 5 min 774 W/m 14,3 C 6,4 km/h (2 Bft)
17.07.2018 15:25 30,1 C 38 % 1011,4 hPa 0,0 l/m 4,2 km/h (1 Bft) SW 220 5 min 767 W/m 14,2 C 9,7 km/h (2 Bft)
17.07.2018 15:20 30,0 C 38 % 1011,4 hPa 0,0 l/m 2,8 km/h (1 Bft) W-SW 257 5 min 803 W/m 14,1 C 6,4 km/h (2 Bft)
17.07.2018 15:15 30,2 C 38 % 1011,4 hPa 0,0 l/m 2,8 km/h (1 Bft) S-SO 163 5 min 841 W/m 14,3 C 6,4 km/h (2 Bft)
17.07.2018 15:10 30,3 C 39 % 1011,4 hPa 0,0 l/m 3,7 km/h (1 Bft) N-NW 348 5 min 836 W/m 14,8 C 11,3 km/h (2 Bft)
17.07.2018 15:05 30,3 C 42 % 1011,5 hPa 0,0 l/m 1,3 km/h (1 Bft) S-SW 204 5 min 618 W/m 15,9 C 4,8 km/h (1 Bft)
17.07.2018 15:00 30,5 C 36 % 1011,5 hPa 0,0 l/m 2,2 km/h (1 Bft) NO 51 5 min 889 W/m 13,7 C 4,8 km/h (1 Bft)
17.07.2018 14:55 30,7 C 37 % 1011,5 hPa 0,0 l/m 1,5 km/h (1 Bft) W-NW 290 5 min 891 W/m 14,3 C 4,8 km/h (1 Bft)
17.07.2018 14:50 31,1 C 39 % 1011,5 hPa 0,0 l/m 1,6 km/h (1 Bft) W 273 5 min 895 W/m 15,5 C 6,4 km/h (2 Bft)
17.07.2018 14:45 30,4 C 37 % 1011,5 hPa 0,0 l/m 3,8 km/h (1 Bft) SW 236 5 min 878 W/m 14,0 C 11,3 km/h (2 Bft)
17.07.2018 14:40 30,6 C 39 % 1011,5 hPa 0,0 l/m 1,7 km/h (1 Bft) SW 235 5 min 862 W/m 15,0 C 4,8 km/h (1 Bft)
17.07.2018 14:35 30,3 C 39 % 1011,5 hPa 0,0 l/m 1,9 km/h (1 Bft) S-SW 198 5 min 808 W/m 14,8 C 6,4 km/h (2 Bft)
17.07.2018 14:30 29,9 C 40 % 1011,5 hPa 0,0 l/m 2,3 km/h (1 Bft) NW 311 5 min 741 W/m 14,8 C 4,8 km/h (1 Bft)
17.07.2018 14:25 29,9 C 37 % 1011,5 hPa 0,0 l/m 2,8 km/h (1 Bft) W 277 5 min 702 W/m 13,6 C 8,0 km/h (2 Bft)
17.07.2018 14:20 29,8 C 38 % 1011,6 hPa 0,0 l/m 2,6 km/h (1 Bft) W-SW 237 5 min 685 W/m 13,9 C 8,0 km/h (2 Bft)
17.07.2018 14:15 30,0 C 37 % 1011,6 hPa 0,0 l/m 0,9 km/h (0 Bft) S-SO 157 5 min 707 W/m 13,7 C 6,4 km/h (2 Bft)
17.07.2018 14:10 29,4 C 42 % 1011,7 hPa 0,0 l/m 2,4 km/h (1 Bft) SW 229 5 min 752 W/m 15,1 C 9,7 km/h (2 Bft)
17.07.2018 14:05 29,4 C 38 % 1011,7 hPa 0,0 l/m 1,9 km/h (1 Bft) W 279 5 min 809 W/m 13,6 C 4,8 km/h (1 Bft)
17.07.2018 14:00 29,2 C 39 % 1011,7 hPa 0,0 l/m 3,7 km/h (1 Bft) W-SW 256 5 min 855 W/m 13,8 C 8,0 km/h (2 Bft)
17.07.2018 13:55 29,4 C 41 % 1011,7 hPa 0,0 l/m 2,3 km/h (1 Bft) NO 54 5 min 896 W/m 14,7 C 9,7 km/h (2 Bft)
17.07.2018 13:50 29,1 C 40 % 1011,8 hPa 0,0 l/m 1,7 km/h (1 Bft) W-SW 247 5 min 894 W/m 14,1 C 4,8 km/h (1 Bft)
17.07.2018 13:45 28,8 C 40 % 1011,8 hPa 0,0 l/m 1,4 km/h (1 Bft) N-NO 32 5 min 540 W/m 13,8 C 6,4 km/h (2 Bft)
17.07.2018 13:40 29,2 C 41 % 1011,8 hPa 0,0 l/m 1,6 km/h (1 Bft) W 263 5 min 892 W/m 14,6 C 6,4 km/h (2 Bft)
17.07.2018 13:35 29,0 C 42 % 1011,8 hPa 0,0 l/m 3,5 km/h (1 Bft) N-NW 347 5 min 916 W/m 14,8 C 9,7 km/h (2 Bft)
17.07.2018 13:30 29,1 C 42 % 1011,8 hPa 0,0 l/m 3,6 km/h (1 Bft) NO 46 5 min 930 W/m 14,9 C 8,0 km/h (2 Bft)
17.07.2018 13:25 28,5 C 39 % 1011,9 hPa 0,0 l/m 2,5 km/h (1 Bft) N-NO 21 5 min 507 W/m 13,2 C 4,8 km/h (1 Bft)
17.07.2018 13:20 28,9 C 41 % 1011,9 hPa 0,0 l/m 2,5 km/h (1 Bft) N 11 5 min 656 W/m 14,3 C 6,4 km/h (2 Bft)
17.07.2018 13:15 29,1 C 42 % 1011,9 hPa 0,0 l/m 3,5 km/h (1 Bft) N 360 5 min 878 W/m 14,9 C 9,7 km/h (2 Bft)
17.07.2018 13:10 29,0 C 42 % 1012,0 hPa 0,0 l/m 2,5 km/h (1 Bft) NO 40 5 min 881 W/m 14,8 C 4,8 km/h (1 Bft)
17.07.2018 13:05 28,7 C 43 % 1012,0 hPa 0,0 l/m 3,1 km/h (1 Bft) O 85 5 min 881 W/m 14,9 C 6,4 km/h (2 Bft)
17.07.2018 13:00 28,7 C 44 % 1012,1 hPa 0,0 l/m 2,0 km/h (1 Bft) O-NO 69 5 min 873 W/m 15,2 C 4,8 km/h (1 Bft)
17.07.2018 12:55 28,3 C 45 % 1012,1 hPa 0,0 l/m 2,3 km/h (1 Bft) SO 146 5 min 872 W/m 15,2 C 6,4 km/h (2 Bft)
17.07.2018 12:50 28,1 C 42 % 1012,1 hPa 0,0 l/m 3,0 km/h (1 Bft) W 271 5 min 859 W/m 14,0 C 9,7 km/h (2 Bft)
17.07.2018 12:45 28,3 C 40 % 1012,1 hPa 0,0 l/m 2,2 km/h (1 Bft) W 260 5 min 867 W/m 13,4 C 3,2 km/h (1 Bft)
17.07.2018 12:40 28,1 C 42 % 1012,1 hPa 0,0 l/m 1,7 km/h (1 Bft) NO 52 5 min 863 W/m 14,0 C 4,8 km/h (1 Bft)
17.07.2018 12:35 28,2 C 41 % 1012,1 hPa 0,0 l/m 2,3 km/h (1 Bft) N 5 5 min 857 W/m 13,7 C 6,4 km/h (2 Bft)
17.07.2018 12:30 28,1 C 44 % 1012,1 hPa 0,0 l/m 1,3 km/h (1 Bft) NO 39 5 min 859 W/m 14,7 C 4,8 km/h (1 Bft)
17.07.2018 12:25 28,2 C 43 % 1012,1 hPa 0,0 l/m 2,7 km/h (1 Bft) N 11 5 min 861 W/m 14,4 C 6,4 km/h (2 Bft)
17.07.2018 12:20 27,9 C 48 % 1012,1 hPa 0,0 l/m 2,9 km/h (1 Bft) O-SO 108 5 min 860 W/m 15,9 C 11,3 km/h (2 Bft)
17.07.2018 12:15 27,7 C 43 % 1012,1 hPa 0,0 l/m 1,8 km/h (1 Bft) SW 232 5 min 854 W/m 14,0 C 4,8 km/h (1 Bft)
17.07.2018 12:10 27,6 C 45 % 1012,1 hPa 0,0 l/m 3,2 km/h (1 Bft) W-SW 241 4 min 852 W/m 14,6 C 6,4 km/h (2 Bft)
17.07.2018 12:06 28,0 C 42 % 1012,1 hPa 0,0 l/m 3,2 km/h (1 Bft) SW 225 1 min 854 W/m 13,9 C 6,4 km/h (2 Bft)
17.07.2018 12:05 28,2 C 46 % 1012,1 hPa 0,0 l/m 1,3 km/h (1 Bft) W-NW 293 5 min 847 W/m 15,5 C 4,8 km/h (1 Bft)
17.07.2018 12:00 27,7 C 48 % 1012,0 hPa 0,0 l/m 1,2 km/h (1 Bft) O-NO 67 5 min 842 W/m 15,7 C 4,8 km/h (1 Bft)
17.07.2018 11:55 27,7 C 47 % 1012,1 hPa 0,0 l/m 2,0 km/h (1 Bft) N-NO 33 5 min 837 W/m 15,3 C 4,8 km/h (1 Bft)
17.07.2018 11:50 27,6 C 46 % 1012,1 hPa 0,0 l/m 1,9 km/h (1 Bft) NO 49 5 min 833 W/m 14,9 C 4,8 km/h (1 Bft)
17.07.2018 11:45 27,4 C 47 % 1012,1 hPa 0,0 l/m 1,6 km/h (1 Bft) N-NW 340 4 min 827 W/m 15,1 C 3,2 km/h (1 Bft)
17.07.2018 11:41 27,5 C 48 % 1012,2 hPa 0,0 l/m 2,1 km/h (1 Bft) N 355 1 min 826 W/m 15,5 C 3,2 km/h (1 Bft)
17.07.2018 11:40 27,4 C 48 % 1012,1 hPa 0,0 l/m 2,2 km/h (1 Bft) N 355 5 min 822 W/m 15,4 C 4,8 km/h (1 Bft)
17.07.2018 11:35 27,8 C 51 % 1012,2 hPa 0,0 l/m 1,2 km/h (1 Bft) N 355 5 min 811 W/m 16,7 C 4,8 km/h (1 Bft)
17.07.2018 11:30 27,5 C 54 % 1012,2 hPa 0,0 l/m 0,5 km/h (0 Bft) N-NW 327 5 min 803 W/m 17,3 C 3,2 km/h (1 Bft)
17.07.2018 11:25 27,3 C 53 % 1012,2 hPa 0,0 l/m 0,6 km/h (0 Bft) N-NW 340 5 min 797 W/m 16,9 C 1,6 km/h (1 Bft)
17.07.2018 11:20 27,4 C 57 % 1012,1 hPa 0,0 l/m 0,5 km/h (0 Bft) N-NW 340 5 min 795 W/m 18,1 C 3,2 km/h (1 Bft)
17.07.2018 11:15 26,9 C 52 % 1012,1 hPa 0,0 l/m 1,2 km/h (1 Bft) N-NW 340 5 min 786 W/m 16,2 C 3,2 km/h (1 Bft)
17.07.2018 11:10 27,1 C 55 % 1012,2 hPa 0,0 l/m 1,6 km/h (1 Bft) N-NW 331 5 min 778 W/m 17,3 C 4,8 km/h (1 Bft)
17.07.2018 11:05 26,7 C 57 % 1012,1 hPa 0,0 l/m 1,1 km/h (1 Bft) NO 35 5 min 770 W/m 17,5 C 3,2 km/h (1 Bft)
17.07.2018 11:00 26,3 C 57 % 1012,2 hPa 0,0 l/m 1,7 km/h (1 Bft) N 5 5 min 761 W/m 17,1 C 6,4 km/h (2 Bft)
_ Min-Zeit 06:25 19:35 17:30 - 19:25 - - - - 20:50 19:25
Minimum _ 15,1 C 31 % 1010,9 hPa - 0,0 km/h (0 Bft) - - - - 11,0 C 0,0 km/h (0 Bft)
_ Max-Zeit 14:50 07:05 09:30 11:00 21:40 - - 11:00 13:30 11:20 22:30
Maximum _ 31,1 C 93 % 1015,3 hPa 0,0 l/m 4,8 km/h
W-SW (1 Bft)
- - 5 min 930 W/m 18,1 C 24,1 km/h
W-NW (4 Bft)
Durchschnitt _ 23,4 C 62 % 1012,9 hPa #0,0 l/m 2,2 km/h (1 Bft) W - #1:15 h 165 W/m 14,7 C 7,1 km/h (2 Bft)